| time (UTC) | temp F | wind direction | speed MPH | gust MPH | rain 1hr in | rain 24hr in | rain mn in | humidity % | barometer mb |
| 20260903224022 | 99 | 147 | 4.0 | 10.0 | 0.00 | 0.00 | 0.00 | 40 | 1010.5 |
| 20260903222518 | 99 | 0 | 1.0 | 9.0 | 0.00 | 0.00 | 0.00 | 39 | 1010.5 |
| 20260903222022 | 100 | 140 | 3.0 | 11.0 | 0.00 | 0.00 | 0.00 | 38 | 1010.6 |
| 20260903221539 | 100 | 164 | 4.0 | 11.0 | 0.00 | 0.00 | 0.00 | 39 | 1010.7 |
| 20260903221016 | 100 | 166 | 2.0 | 10.0 | 0.00 | 0.00 | 0.00 | 39 | 1010.6 |
| 20260903220518 | 102 | 155 | 5.0 | 11.0 | 0.00 | 0.00 | 0.00 | 38 | 1010.4 |
| 20260903213520 | 102 | 144 | 4.0 | 9.0 | 0.00 | 0.00 | 0.00 | 36 | 1010.8 |
| 20260903212519 | 102 | 140 | 2.0 | 9.0 | 0.00 | 0.00 | 0.00 | 38 | 1011.0 |
| 20260903212020 | 101 | 163 | 3.0 | 10.0 | 0.00 | 0.00 | 0.00 | 38 | 1011.1 |
| 20260903211540 | 101 | 150 | 4.0 | 10.0 | 0.00 | 0.00 | 0.00 | 39 | 1011.1 |
| 20260903211018 | 101 | 126 | 4.0 | 14.0 | 0.00 | 0.00 | 0.00 | 39 | 1011.0 |
| 20260903210518 | 101 | 101 | 5.0 | 14.0 | 0.00 | 0.00 | 0.00 | 39 | 1011.0 |
| 20260903205520 | 101 | 120 | 5.0 | 13.0 | 0.00 | 0.00 | 0.00 | 39 | 1011.2 |
| 20260903204020 | 101 | 142 | 3.0 | 11.0 | 0.00 | 0.00 | 0.00 | 38 | 1011.6 |
| 20260903203519 | 102 | 133 | 5.0 | 11.0 | 0.00 | 0.00 | 0.00 | 38 | 1011.7 |
| 20260903202523 | 101 | 161 | 4.0 | 12.0 | 0.00 | 0.00 | 0.00 | 39 | 1011.7 |
| 20260903202017 | 101 | 151 | 3.0 | 12.0 | 0.00 | 0.00 | 0.00 | 39 | 1011.8 |
| 20260903201536 | 103 | 86 | 4.0 | 12.0 | 0.00 | 0.00 | 0.00 | 38 | 1011.8 |
| 20260903201019 | 102 | 173 | 5.0 | 12.0 | 0.00 | 0.00 | 0.00 | 38 | 1011.8 |
| 20260903200516 | 102 | 148 | 6.0 | 12.0 | 0.00 | 0.00 | 0.00 | 38 | 1011.9 |
| 20260903193522 | 98 | 167 | 3.0 | 10.0 | 0.00 | 0.00 | 0.00 | 41 | 1012.1 |
| 20260903192521 | 98 | 153 | 2.0 | 6.0 | 0.00 | 0.00 | 0.00 | 41 | 1012.4 |
| 20260903192017 | 97 | 69 | 1.0 | 6.0 | 0.00 | 0.00 | 0.00 | 42 | 1012.4 |
| 20260903191538 | 96 | 0 | 0.0 | 6.0 | 0.00 | 0.00 | 0.00 | 43 | 1012.5 |
| 20260903191017 | 96 | 110 | 1.0 | 6.0 | 0.00 | 0.00 | 0.00 | 43 | 1012.6 |
| 20260903190520 | 96 | 109 | 1.0 | 6.0 | 0.00 | 0.00 | 0.00 | 44 | 1012.7 |
| 20260903185027 | 98 | 147 | 0.0 | 10.0 | 0.00 | 0.00 | 0.00 | 42 | 1012.9 |
| 20260903184025 | 99 | 184 | 4.0 | 10.0 | 0.00 | 0.00 | 0.00 | 40 | 1012.9 |
| 20260903183519 | 100 | 186 | 3.0 | 8.0 | 0.00 | 0.00 | 0.00 | 40 | 1013.0 |
| 20260903183038 | 98 | 159 | 2.0 | 7.0 | 0.00 | 0.00 | 0.00 | 41 | 1013.2 |
| 20260903182518 | 99 | 169 | 3.0 | 7.0 | 0.00 | 0.00 | 0.00 | 42 | 1013.2 |
| 20260903182016 | 100 | 169 | 2.0 | 6.0 | 0.00 | 0.00 | 0.00 | 40 | 1013.3 |
| 20260903180519 | 99 | 147 | 2.0 | 8.0 | 0.00 | 0.00 | 0.00 | 42 | 1013.6 |
| 20260903175520 | 99 | 138 | 3.0 | 10.0 | 0.00 | 0.00 | 0.00 | 43 | 1013.6 |
| 20260903175020 | 98 | 184 | 4.0 | 9.0 | 0.00 | 0.00 | 0.00 | 42 | 1013.7 |
| 20260903174019 | 99 | 98 | 2.0 | 7.0 | 0.00 | 0.00 | 0.00 | 43 | 1013.9 |
| 20260903173522 | 99 | 115 | 2.0 | 7.0 | 0.00 | 0.00 | 0.00 | 42 | 1014.0 |
| 20260903173038 | 96 | 145 | 1.0 | 6.0 | 0.00 | 0.00 | 0.00 | 47 | 1014.1 |
| 20260903172518 | 94 | 0 | 2.0 | 6.0 | 0.00 | 0.00 | 0.00 | 48 | 1014.3 |
| 20260903172018 | 94 | 132 | 3.0 | 6.0 | 0.00 | 0.00 | 0.00 | 47 | 1014.3 |
| 20260903165518 | 94 | 188 | 4.0 | 9.0 | 0.00 | 0.00 | 0.00 | 47 | 1014.4 |
| 20260903165017 | 93 | 230 | 3.0 | 7.0 | 0.00 | 0.00 | 0.00 | 50 | 1014.5 |
| 20260903164538 | 94 | 236 | 2.0 | 7.0 | 0.00 | 0.00 | 0.00 | 48 | 1014.7 |
| 20260903163041 | 93 | 123 | 3.0 | 9.0 | 0.00 | 0.00 | 0.00 | 50 | 1014.6 |
| 20260903162020 | 92 | 0 | 0.0 | 12.0 | 0.00 | 0.00 | 0.00 | 51 | 1014.5 |
| 20260903161537 | 92 | 173 | 5.0 | 12.0 | 0.00 | 0.00 | 0.00 | 51 | 1014.5 |
| 20260903160520 | 91 | 246 | 5.0 | 12.0 | 0.00 | 0.00 | 0.00 | 53 | 1014.4 |
| 20260903160044 | 91 | 234 | 4.0 | 10.0 | 0.00 | 0.00 | 0.00 | 52 | 1014.4 |
| 20260903155521 | 91 | 232 | 4.0 | 12.0 | 0.00 | 0.00 | 0.00 | 54 | 1014.4 |
| 20260903155017 | 90 | 169 | 6.0 | 12.0 | 0.00 | 0.00 | 0.00 | 56 | 1014.3 |
| 20260903154540 | 89 | 237 | 5.0 | 13.0 | 0.00 | 0.00 | 0.00 | 56 | 1014.3 |
| 20260903154024 | 89 | 212 | 6.0 | 13.0 | 0.00 | 0.00 | 0.00 | 56 | 1014.3 |
| 20260903153041 | 88 | 169 | 4.0 | 9.0 | 0.00 | 0.00 | 0.00 | 60 | 1014.2 |
| 20260903151541 | 87 | 178 | 4.0 | 9.0 | 0.00 | 0.00 | 0.00 | 62 | 1014.4 |
| 20260903150052 | 86 | 198 | 4.0 | 9.0 | 0.00 | 0.00 | 0.00 | 63 | 1014.5 |
| 20260903145517 | 85 | 135 | 3.0 | 9.0 | 0.00 | 0.00 | 0.00 | 65 | 1014.5 |
| 20260903145021 | 85 | 192 | 2.0 | 6.0 | 0.00 | 0.00 | 0.00 | 65 | 1014.5 |
| 20260903144541 | 84 | 121 | 2.0 | 5.0 | 0.00 | 0.00 | 0.00 | 66 | 1014.5 |
| 20260903144020 | 84 | 171 | 2.0 | 6.0 | 0.00 | 0.00 | 0.00 | 67 | 1014.6 |
| 20260903143521 | 83 | 169 | 1.0 | 6.0 | 0.00 | 0.00 | 0.00 | 69 | 1014.5 |
| 20260903143043 | 82 | 197 | 2.0 | 5.0 | 0.00 | 0.00 | 0.00 | 69 | 1014.5 |
| 20260903141540 | 81 | 139 | 2.0 | 7.0 | 0.00 | 0.00 | 0.00 | 72 | 1014.6 |
| 20260903140041 | 80 | 185 | 2.0 | 5.0 | 0.00 | 0.00 | 0.00 | 75 | 1014.9 |
| 20260903135518 | 79 | 156 | 2.0 | 5.0 | 0.00 | 0.00 | 0.00 | 77 | 1014.9 |
| 20260903135018 | 79 | 146 | 2.0 | 7.0 | 0.00 | 0.00 | 0.00 | 77 | 1014.9 |
| 20260903134546 | 78 | 136 | 2.0 | 9.0 | 0.00 | 0.00 | 0.00 | 78 | 1014.8 |
| 20260903134019 | 78 | 130 | 3.0 | 9.0 | 0.00 | 0.00 | 0.00 | 79 | 1014.9 |
| 20260903133518 | 77 | 132 | 2.0 | 6.0 | 0.00 | 0.00 | 0.00 | 80 | 1014.9 |
| 20260903133038 | 76 | 159 | 1.0 | 5.0 | 0.00 | 0.00 | 0.00 | 81 | 1014.8 |
| 20260903131549 | 75 | 163 | 1.0 | 5.0 | 0.00 | 0.00 | 0.00 | 84 | 1014.7 |
| 20260903131022 | 75 | 158 | 1.0 | 4.0 | 0.00 | 0.00 | 0.00 | 84 | 1014.6 |
| 20260903130521 | 74 | 0 | 1.0 | 4.0 | 0.00 | 0.00 | 0.00 | 85 | 1014.6 |
| 20260903130045 | 74 | 146 | 1.0 | 5.0 | 0.00 | 0.00 | 0.00 | 86 | 1014.5 |
| 20260903125516 | 74 | 126 | 1.0 | 5.0 | 0.00 | 0.00 | 0.00 | 86 | 1014.6 |
| 20260903124541 | 73 | 126 | 1.0 | 5.0 | 0.00 | 0.00 | 0.00 | 87 | 1014.6 |
| 20260903123521 | 72 | 132 | 0.0 | 2.0 | 0.00 | 0.00 | 0.00 | 87 | 1014.4 |
| 20260903123043 | 72 | 0 | 0.0 | 2.0 | 0.00 | 0.00 | 0.00 | 87 | 1014.3 |
| 20260903122518 | 72 | 0 | 0.0 | 2.0 | 0.00 | 0.00 | 0.00 | 87 | 1014.2 |
| 20260903122018 | 72 | 0 | 0.0 | 1.0 | 0.00 | 0.00 | 0.00 | 87 | 1014.2 |
| 20260903121553 | 72 | 0 | 0.0 | 0.0 | 0.00 | 0.00 | 0.00 | 87 | 1014.1 |
| 20260903121019 | 72 | 0 | 0.0 | 0.0 | 0.00 | 0.00 | 0.00 | 86 | 1014.0 |
| 20260903120517 | 72 | 0 | 0.0 | 1.0 | 0.00 | 0.00 | 0.00 | 86 | 1014.0 |
| 20260903120040 | 72 | 0 | 0.0 | 2.0 | 0.00 | 0.00 | 0.00 | 86 | 1013.9 |
| 20260903114539 | 72 | 125 | 0.0 | 2.0 | 0.00 | 0.00 | 0.00 | 87 | 1013.9 |
| 20260903113519 | 72 | 155 | 0.0 | 2.0 | 0.00 | 0.00 | 0.00 | 87 | 1013.8 |
| 20260903113038 | 72 | 0 | 0.0 | 2.0 | 0.00 | 0.00 | 0.00 | 86 | 1013.8 |
| 20260903112525 | 72 | 0 | 0.0 | 2.0 | 0.00 | 0.00 | 0.00 | 86 | 1013.7 |
| 20260903112020 | 72 | 0 | 0.0 | 0.0 | 0.00 | 0.00 | 0.00 | 86 | 1013.7 |
| 20260903111545 | 72 | 0 | 0.0 | 2.0 | 0.00 | 0.00 | 0.00 | 86 | 1013.7 |
| 20260903111018 | 72 | 0 | 0.0 | 2.0 | 0.00 | 0.00 | 0.00 | 86 | 1013.7 |
| 20260903110520 | 72 | 0 | 0.0 | 1.0 | 0.00 | 0.00 | 0.00 | 86 | 1013.7 |
| 20260903110039 | 72 | 0 | 0.0 | 1.0 | 0.00 | 0.00 | 0.00 | 86 | 1013.7 |
| 20260903105518 | 72 | 0 | 0.0 | 2.0 | 0.00 | 0.00 | 0.00 | 85 | 1013.6 |
| 20260903105019 | 72 | 0 | 0.0 | 2.0 | 0.00 | 0.00 | 0.00 | 85 | 1013.6 |
| 20260903104549 | 72 | 0 | 0.0 | 1.0 | 0.00 | 0.00 | 0.00 | 85 | 1013.5 |
| 20260903103039 | 72 | 0 | 0.0 | 0.0 | 0.00 | 0.00 | 0.00 | 84 | 1013.4 |
| 20260903102519 | 73 | 0 | 0.0 | 0.0 | 0.00 | 0.00 | 0.00 | 84 | 1013.3 |
| 20260903102020 | 73 | 0 | 0.0 | 0.0 | 0.00 | 0.00 | 0.00 | 83 | 1013.4 |
| 20260903101544 | 73 | 0 | 0.0 | 0.0 | 0.00 | 0.00 | 0.00 | 83 | 1013.4 |
| 20260903101018 | 74 | 0 | 0.0 | 1.0 | 0.00 | 0.00 | 0.00 | 82 | 1013.4 |
| 20260903100044 | 74 | 0 | 0.0 | 0.0 | 0.00 | 0.00 | 0.00 | 83 | 1013.4 |
| 20260903095022 | 73 | 0 | 0.0 | 0.0 | 0.00 | 0.00 | 0.00 | 83 | 1013.5 |
| 20260903094539 | 73 | 0 | 0.0 | 0.0 | 0.00 | 0.00 | 0.00 | 83 | 1013.5 |
| 20260903094026 | 73 | 0 | 0.0 | 0.0 | 0.00 | 0.00 | 0.00 | 83 | 1013.5 |
| 20260903093527 | 74 | 0 | 0.0 | 0.0 | 0.00 | 0.00 | 0.00 | 81 | 1013.6 |
| 20260903093038 | 74 | 0 | 0.0 | 0.0 | 0.00 | 0.00 | 0.00 | 82 | 1013.6 |
| 20260903092519 | 74 | 0 | 0.0 | 0.0 | 0.00 | 0.00 | 0.00 | 82 | 1013.5 |
| 20260903092021 | 73 | 0 | 0.0 | 0.0 | 0.00 | 0.00 | 0.00 | 83 | 1013.5 |
| 20260903091550 | 73 | 0 | 0.0 | 0.0 | 0.00 | 0.00 | 0.00 | 83 | 1013.5 |
| 20260903091019 | 73 | 0 | 0.0 | 0.0 | 0.00 | 0.00 | 0.00 | 82 | 1013.6 |
| 20260903084539 | 74 | 0 | 0.0 | 0.0 | 0.00 | 0.00 | 0.00 | 80 | 1014.0 |
| 20260903084021 | 75 | 0 | 0.0 | 0.0 | 0.00 | 0.00 | 0.00 | 80 | 1014.1 |
| 20260903083521 | 75 | 0 | 0.0 | 0.0 | 0.00 | 0.00 | 0.00 | 80 | 1014.0 |
| 20260903083038 | 75 | 0 | 0.0 | 1.0 | 0.00 | 0.00 | 0.00 | 79 | 1014.0 |
| 20260903082518 | 75 | 0 | 0.0 | 1.0 | 0.00 | 0.00 | 0.00 | 79 | 1014.0 |
| 20260903082020 | 75 | 0 | 0.0 | 2.0 | 0.00 | 0.00 | 0.00 | 79 | 1014.1 |
| 20260903081539 | 76 | 0 | 0.0 | 2.0 | 0.00 | 0.00 | 0.00 | 78 | 1014.2 |
| 20260903081016 | 76 | 155 | 0.0 | 2.0 | 0.00 | 0.00 | 0.00 | 78 | 1014.3 |
| 20260903075524 | 75 | 0 | 0.0 | 2.0 | 0.00 | 0.00 | 0.00 | 78 | 1014.3 |
| 20260903075018 | 76 | 155 | 0.0 | 2.0 | 0.00 | 0.00 | 0.00 | 77 | 1014.3 |
| 20260903074540 | 76 | 0 | 0.0 | 2.0 | 0.00 | 0.00 | 0.00 | 77 | 1014.4 |
| 20260903074019 | 77 | 0 | 0.0 | 4.0 | 0.00 | 0.00 | 0.00 | 77 | 1014.5 |
| 20260903073518 | 77 | 148 | 0.0 | 4.0 | 0.00 | 0.00 | 0.00 | 76 | 1014.6 |
| 20260903073055 | 77 | 0 | 0.0 | 2.0 | 0.00 | 0.00 | 0.00 | 76 | 1014.6 |
| 20260903070039 | 78 | 153 | 2.0 | 6.0 | 0.00 | 0.00 | 0.00 | 74 | 1014.7 |
| 20260903065518 | 78 | 155 | 1.0 | 7.0 | 0.00 | 0.00 | 0.00 | 74 | 1014.9 |
| 20260903065017 | 78 | 165 | 2.0 | 7.0 | 0.00 | 0.00 | 0.00 | 73 | 1014.9 |
| 20260903064538 | 78 | 144 | 2.0 | 7.0 | 0.00 | 0.00 | 0.00 | 73 | 1014.9 |
| 20260903064018 | 79 | 147 | 2.0 | 7.0 | 0.00 | 0.00 | 0.00 | 73 | 1014.9 |
| 20260903063518 | 79 | 150 | 2.0 | 7.0 | 0.00 | 0.00 | 0.00 | 72 | 1014.9 |
| 20260903063042 | 79 | 138 | 2.0 | 7.0 | 0.00 | 0.00 | 0.00 | 72 | 1014.9 |
| 20260903062020 | 79 | 154 | 3.0 | 8.0 | 0.00 | 0.00 | 0.00 | 72 | 1014.9 |
| 20260903061021 | 79 | 135 | 3.0 | 7.0 | 0.00 | 0.00 | 0.00 | 71 | 1015.0 |
| 20260903060519 | 79 | 149 | 2.0 | 7.0 | 0.00 | 0.00 | 0.00 | 71 | 1015.0 |
| 20260903060056 | 79 | 136 | 1.0 | 7.0 | 0.00 | 0.00 | 0.00 | 71 | 1014.9 |
| 20260903055520 | 79 | 155 | 1.0 | 8.0 | 0.00 | 0.00 | 0.00 | 71 | 1015.0 |
| 20260903055020 | 80 | 159 | 2.0 | 8.0 | 0.00 | 0.00 | 0.00 | 70 | 1014.8 |
| 20260903054538 | 80 | 130 | 2.0 | 7.0 | 0.00 | 0.00 | 0.00 | 70 | 1014.9 |
| 20260903054018 | 80 | 153 | 2.0 | 8.0 | 0.00 | 0.00 | 0.00 | 69 | 1014.9 |
| 20260903053519 | 80 | 128 | 3.0 | 8.0 | 0.00 | 0.00 | 0.00 | 68 | 1014.8 |
| 20260903053043 | 81 | 131 | 3.0 | 9.0 | 0.00 | 0.00 | 0.00 | 68 | 1014.8 |
| 20260903052519 | 81 | 133 | 3.0 | 9.0 | 0.00 | 0.00 | 0.00 | 68 | 1014.9 |
| 20260903050520 | 81 | 139 | 2.0 | 9.0 | 0.00 | 0.00 | 0.00 | 67 | 1014.7 |
| 20260903050043 | 81 | 131 | 1.0 | 7.0 | 0.00 | 0.00 | 0.00 | 67 | 1014.8 |
| 20260903045517 | 81 | 120 | 1.0 | 7.0 | 0.00 | 0.00 | 0.00 | 67 | 1014.7 |
| 20260903045020 | 81 | 115 | 1.0 | 7.0 | 0.00 | 0.00 | 0.00 | 67 | 1014.8 |
| 20260903044540 | 81 | 133 | 2.0 | 7.0 | 0.00 | 0.00 | 0.00 | 66 | 1014.7 |
| 20260903042540 | 81 | 159 | 2.0 | 7.0 | 0.00 | 0.00 | 0.00 | 66 | 1014.7 |
| 20260903042018 | 82 | 124 | 1.0 | 6.0 | 0.00 | 0.00 | 0.00 | 65 | 1014.7 |
| 20260903041539 | 82 | 124 | 1.0 | 6.0 | 0.00 | 0.00 | 0.00 | 65 | 1014.9 |
| 20260903041022 | 82 | 0 | 0.0 | 7.0 | 0.00 | 0.00 | 0.00 | 65 | 1014.9 |
| 20260903040519 | 82 | 0 | 1.0 | 7.0 | 0.00 | 0.00 | 0.00 | 64 | 1015.0 |
| 20260903040037 | 83 | 134 | 1.0 | 7.0 | 0.00 | 0.00 | 0.00 | 63 | 1015.0 |
| 20260903035518 | 83 | 128 | 2.0 | 7.0 | 0.00 | 0.00 | 0.00 | 63 | 1015.0 |
| 20260903032520 | 84 | 117 | 1.0 | 5.0 | 0.00 | 0.00 | 0.00 | 61 | 1014.9 |
| 20260903032019 | 84 | 154 | 2.0 | 8.0 | 0.00 | 0.00 | 0.00 | 60 | 1014.9 |
| 20260903031021 | 85 | 117 | 3.0 | 9.0 | 0.00 | 0.00 | 0.00 | 59 | 1014.8 |
| 20260903030517 | 85 | 146 | 2.0 | 9.0 | 0.00 | 0.00 | 0.00 | 58 | 1014.7 |
| 20260903030046 | 85 | 133 | 2.0 | 8.0 | 0.00 | 0.00 | 0.00 | 57 | 1014.7 |
| 20260903025520 | 85 | 131 | 2.0 | 8.0 | 0.00 | 0.00 | 0.00 | 56 | 1014.6 |
| 20260903025018 | 85 | 124 | 2.0 | 6.0 | 0.00 | 0.00 | 0.00 | 55 | 1014.6 |
| 20260903024537 | 85 | 114 | 1.0 | 6.0 | 0.00 | 0.00 | 0.00 | 54 | 1014.5 |
| 20260903023039 | 86 | 0 | 1.0 | 8.0 | 0.00 | 0.00 | 0.00 | 52 | 1014.3 |
| 20260903022520 | 87 | 152 | 2.0 | 6.0 | 0.00 | 0.00 | 0.00 | 52 | 1014.2 |
| 20260903022027 | 87 | 0 | 2.0 | 9.0 | 0.00 | 0.00 | 0.00 | 51 | 1014.1 |
| 20260903021546 | 87 | 0 | 2.0 | 9.0 | 0.00 | 0.00 | 0.00 | 50 | 1013.8 |
| 20260903021021 | 86 | 96 | 0.0 | 4.0 | 0.00 | 0.00 | 0.00 | 50 | 1013.7 |
| 20260903020518 | 86 | 0 | 0.0 | 2.0 | 0.00 | 0.00 | 0.00 | 50 | 1013.7 |
| 20260903020039 | 86 | 0 | 0.0 | 2.0 | 0.00 | 0.00 | 0.00 | 50 | 1013.6 |
| 20260903014024 | 87 | 0 | 0.0 | 2.0 | 0.00 | 0.00 | 0.00 | 49 | 1013.3 |
| 20260903013527 | 87 | 0 | 0.0 | 1.0 | 0.00 | 0.00 | 0.00 | 48 | 1013.2 |
| 20260903013039 | 87 | 0 | 0.0 | 1.0 | 0.00 | 0.00 | 0.00 | 48 | 1013.2 |
| 20260903012517 | 87 | 0 | 0.0 | 1.0 | 0.00 | 0.00 | 0.00 | 48 | 1013.0 |
| 20260903011600 | 88 | 0 | 0.0 | 0.0 | 0.00 | 0.00 | 0.00 | 47 | 1013.2 |
| 20260903010043 | 89 | 0 | 0.0 | 1.0 | 0.00 | 0.00 | 0.00 | 45 | 1013.0 |
| 20260903005020 | 90 | 0 | 0.0 | 2.0 | 0.00 | 0.00 | 0.00 | 44 | 1013.2 |
| 20260903004539 | 91 | 0 | 0.0 | 2.0 | 0.00 | 0.00 | 0.00 | 43 | 1013.0 |
| 20260903004020 | 91 | 0 | 0.0 | 4.0 | 0.00 | 0.00 | 0.00 | 42 | 1012.9 |
| 20260903003521 | 92 | 0 | 0.0 | 7.0 | 0.00 | 0.00 | 0.00 | 42 | 1012.8 |
| 20260903003039 | 92 | 100 | 0.0 | 7.0 | 0.00 | 0.00 | 0.00 | 41 | 1012.8 |
| 20260903002517 | 93 | 0 | 1.0 | 6.0 | 0.00 | 0.00 | 0.00 | 41 | 1012.7 |
| 20260903001542 | 94 | 0 | 0.0 | 6.0 | 0.00 | 0.00 | 0.00 | 39 | 1012.7 |
| 20260903000050 | 95 | 66 | 0.0 | 6.0 | 0.00 | 0.00 | 0.00 | 38 | 1012.7 |
| 20260902235021 | 97 | 100 | 2.0 | 8.0 | 0.00 | 0.00 | 0.00 | 36 | 1012.6 |
| 20260902234542 | 97 | 39 | 0.0 | 5.0 | 0.00 | 0.00 | 0.00 | 36 | 1012.7 |
| 20260902234022 | 97 | 78 | 1.0 | 6.0 | 0.00 | 0.00 | 0.00 | 35 | 1012.6 |
| 20260902233520 | 98 | 124 | 2.0 | 6.0 | 0.00 | 0.00 | 0.00 | 35 | 1012.6 |
| 20260902233049 | 98 | 137 | 1.0 | 6.0 | 0.00 | 0.00 | 0.00 | 35 | 1012.6 |
| 20260902232520 | 97 | 101 | 0.0 | 7.0 | 0.00 | 0.00 | 0.00 | 36 | 1012.6 |
| 20260902232017 | 99 | 119 | 2.0 | 8.0 | 0.00 | 0.00 | 0.00 | 34 | 1012.6 |
| 20260902231538 | 100 | 84 | 1.0 | 8.0 | 0.00 | 0.00 | 0.00 | 33 | 1012.6 |
| 20260902230054 | 99 | 98 | 1.0 | 6.0 | 0.00 | 0.00 | 0.00 | 34 | 1012.5 |